• In Lithuania
  • List of Countries
  • For 7 days
  • Water Temperature
  • Satellite Maps
  • Weather Map
  • Weather Widgets
  • user-avatar
    Login

    Hourly Weather Gori

    Today, 21 September, Friday

    Time Temperature Precipitation Wind Pressure Humidity
    00:00 +16°C° 0 mm 2 mps 703 mmHg 82%
    01:00 +15°C° 0 mm 2 mps 703 mmHg 83%
    02:00 +15°C° 0 mm 2 mps 702 mmHg 83%
    03:00 +15°C° 0 mm 2 mps 702 mmHg 84%
    04:00 +15°C° 0 mm 2 mps 702 mmHg 84%
    05:00 +15°C° 0 mm 2 mps 702 mmHg 84%
    06:00 +14°C° 0 mm 2 mps 702 mmHg 84%
    07:00 +16°C° 0 mm 2 mps 702 mmHg 76%
    08:00 +19°C° 0 mm 2 mps 702 mmHg 68%
    09:00 +21°C° 0 mm 3 mps 703 mmHg 60%
    10:00 +22°C° 0 mm 3 mps 703 mmHg 56%
    11:00 +24°C° 0 mm 3 mps 703 mmHg 51%
    12:00 +26°C° 0 mm 3 mps 703 mmHg 46%
    13:00 +26°C° 0 mm 3 mps 702 mmHg 45%
    14:00 +27°C° 0 mm 3 mps 702 mmHg 44%
    15:00 +27°C° 0 mm 3 mps 702 mmHg 42%
    16:00 +25°C° 0.2 mm 2 mps 702 mmHg 50%
    17:00 +23°C° 0.2 mm 2 mps 702 mmHg 57%
    18:00 +21°C° 0.2 mm 1 mps 702 mmHg 64%
    19:00 +20°C° 0 mm 1 mps 702 mmHg 67%
    20:00 +19°C° 0 mm 1 mps 702 mmHg 69%
    21:00 +19°C° 0 mm 1 mps 702 mmHg 72%
    22:00 +18°C° 0 mm 1 mps 702 mmHg 73%
    23:00 +18°C° 0 mm 1 mps 702 mmHg 73%

    Tomorrow, 22 September, Saturday

    Time Temperature Precipitation Wind Pressure Humidity
    00:00 +17°C° 0 mm 2 mps 702 mmHg 73%
    01:00 +16°C° 0 mm 2 mps 702 mmHg 74%
    02:00 +16°C° 0 mm 2 mps 702 mmHg 75%
    03:00 +16°C° 0 mm 2 mps 702 mmHg 76%
    04:00 +16°C° 0 mm 2 mps 702 mmHg 76%
    05:00 +16°C° 0 mm 2 mps 702 mmHg 77%
    06:00 +15°C° 0 mm 2 mps 702 mmHg 77%
    07:00 +17°C° 0 mm 2 mps 702 mmHg 72%
    08:00 +19°C° 0 mm 2 mps 703 mmHg 67%
    09:00 +20°C° 0 mm 2 mps 703 mmHg 61%
    10:00 +21°C° 0.1 mm 3 mps 703 mmHg 58%
    11:00 +24°C° 0.1 mm 3 mps 703 mmHg 55%
    12:00 +25°C° 0.1 mm 3 mps 702 mmHg 52%
    13:00 +25°C° 0.2 mm 3 mps 702 mmHg 52%
    14:00 +25°C° 0.2 mm 3 mps 702 mmHg 52%
    15:00 +25°C° 0.2 mm 3 mps 702 mmHg 52%
    16:00 +24°C° 0.2 mm 2 mps 702 mmHg 58%
    17:00 +21°C° 0.2 mm 2 mps 702 mmHg 64%
    18:00 +21°C° 0.2 mm 1 mps 702 mmHg 70%
    19:00 +20°C° 0 mm 1 mps 702 mmHg 73%
    20:00 +19°C° 0 mm 1 mps 702 mmHg 77%
    21:00 +18°C° 0 mm 1 mps 702 mmHg 80%
    22:00 +18°C° 0 mm 1 mps 702 mmHg 79%
    23:00 +16°C° 0 mm 1 mps 702 mmHg 79%

    Day after tomorrow, 23 September, Sunday

    Time Temperature Precipitation Wind Pressure Humidity
    00:00 +16°C° 0 mm 1 mps 702 mmHg 79%
    01:00 +16°C° 0 mm 1 mps 702 mmHg 78%
    02:00 +16°C° 0 mm 1 mps 702 mmHg 77%
    03:00 +16°C° 0 mm 1 mps 702 mmHg 76%
    04:00 +16°C° 0 mm 1 mps 702 mmHg 76%
    05:00 +16°C° 0 mm 1 mps 702 mmHg 77%
    06:00 +15°C° 0 mm 1 mps 701 mmHg 77%
    07:00 +18°C° 0 mm 1 mps 702 mmHg 71%
    08:00 +19°C° 0 mm 2 mps 702 mmHg 66%
    09:00 +21°C° 0 mm 2 mps 702 mmHg 60%
    10:00 +23°C° 0 mm 2 mps 702 mmHg 57%
    11:00 +24°C° 0 mm 2 mps 702 mmHg 53%
    12:00 +25°C° 0 mm 2 mps 702 mmHg 49%
    13:00 +26°C° 0.1 mm 2 mps 701 mmHg 49%
    14:00 +26°C° 0.1 mm 2 mps 701 mmHg 49%
    15:00 +26°C° 0.1 mm 2 mps 701 mmHg 48%
    16:00 +24°C° 0.2 mm 2 mps 701 mmHg 56%
    17:00 +21°C° 0.2 mm 2 mps 701 mmHg 63%
    18:00 +19°C° 0.2 mm 2 mps 701 mmHg 71%
    19:00 +18°C° 0.1 mm 2 mps 701 mmHg 77%
    20:00 +17°C° 0.1 mm 2 mps 701 mmHg 83%
    21:00 +16°C° 0.1 mm 2 mps 701 mmHg 89%
    22:00 +16°C° 0 mm 2 mps 701 mmHg 90%
    23:00 +16°C° 0 mm 2 mps 702 mmHg 90%

    24 September, Monday

    Time Temperature Precipitation Wind Pressure Humidity
    00:00 +15°C° 0 mm 2 mps 702 mmHg 91%
    01:00 +15°C° 0 mm 2 mps 702 mmHg 91%
    02:00 +15°C° 0 mm 2 mps 702 mmHg 91%
    03:00 +15°C° 0 mm 2 mps 702 mmHg 91%
    04:00 +15°C° 0 mm 2 mps 702 mmHg 91%
    05:00 +15°C° 0 mm 2 mps 702 mmHg 90%
    06:00 +14°C° 0 mm 2 mps 702 mmHg 89%
    07:00 +16°C° 0 mm 3 mps 702 mmHg 82%
    08:00 +17°C° 0 mm 3 mps 702 mmHg 74%
    09:00 +19°C° 0 mm 4 mps 702 mmHg 67%
    10:00 +20°C° 0 mm 4 mps 702 mmHg 64%
    11:00 +20°C° 0 mm 5 mps 702 mmHg 61%
    12:00 +21°C° 0 mm 5 mps 702 mmHg 58%
    13:00 +21°C° 0 mm 5 mps 702 mmHg 57%
    14:00 +22°C° 0 mm 5 mps 701 mmHg 55%
    15:00 +22°C° 0 mm 5 mps 701 mmHg 54%
    16:00 +20°C° 0 mm 4 mps 701 mmHg 62%
    17:00 +18°C° 0 mm 3 mps 701 mmHg 69%
    18:00 +17°C° 0 mm 2 mps 701 mmHg 76%
    19:00 +16°C° 0 mm 2 mps 701 mmHg 79%
    20:00 +15°C° 0 mm 1 mps 701 mmHg 81%
    21:00 +14°C° 0 mm 1 mps 701 mmHg 84%
    22:00 +14°C° 0 mm 1 mps 701 mmHg 83%
    23:00 +14°C° 0 mm 1 mps 701 mmHg 82%

    25 September, Tuesday

    Time Temperature Precipitation Wind Pressure Humidity
    00:00 +14°C° 0 mm 1 mps 701 mmHg 81%
    01:00 +13°C° 0 mm 1 mps 700 mmHg 80%
    02:00 +13°C° 0 mm 1 mps 700 mmHg 79%
    03:00 +13°C° 0 mm 1 mps 700 mmHg 78%
    04:00 +13°C° 0 mm 1 mps 700 mmHg 77%
    05:00 +13°C° 0 mm 1 mps 700 mmHg 77%
    06:00 +13°C° 0 mm 1 mps 700 mmHg 76%
    07:00 +16°C° 0 mm 1 mps 700 mmHg 67%
    08:00 +18°C° 0 mm 2 mps 700 mmHg 59%
    09:00 +21°C° 0 mm 2 mps 700 mmHg 50%
    10:00 +24°C° 0 mm 2 mps 700 mmHg 46%
    11:00 +25°C° 0 mm 2 mps 700 mmHg 41%
    12:00 +27°C° 0 mm 2 mps 700 mmHg 37%
    13:00 +27°C° 0 mm 2 mps 700 mmHg 36%
    14:00 +27°C° 0 mm 2 mps 700 mmHg 35%
    15:00 +28°C° 0 mm 3 mps 699 mmHg 34%
    16:00 +25°C° 0 mm 2 mps 699 mmHg 41%
    17:00 +23°C° 0 mm 2 mps 699 mmHg 49%
    18:00 +20°C° 0 mm 1 mps 699 mmHg 56%
    19:00 +19°C° 0 mm 1 mps 700 mmHg 59%
    20:00 +17°C° 0 mm 2 mps 700 mmHg 63%
    21:00 +16°C° 0 mm 2 mps 700 mmHg 66%
    22:00 +16°C° 0 mm 2 mps 700 mmHg 67%
    23:00 +15°C° 0 mm 1 mps 700 mmHg 68%

    26 September, Wednesday

    Time Temperature Precipitation Wind Pressure Humidity
    00:00 +15°C° 0 mm 1 mps 700 mmHg 69%
    01:00 +15°C° 0 mm 1 mps 701 mmHg 69%
    02:00 +14°C° 0 mm 1 mps 701 mmHg 69%
    03:00 +14°C° 0 mm 1 mps 701 mmHg 69%
    04:00 +14°C° 0 mm 1 mps 701 mmHg 69%
    05:00 +14°C° 0 mm 1 mps 701 mmHg 68%
    06:00 +14°C° 0 mm 1 mps 701 mmHg 68%
    07:00 +16°C° 0 mm 1 mps 701 mmHg 60%
    08:00 +19°C° 0 mm 2 mps 701 mmHg 53%
    09:00 +23°C° 0 mm 2 mps 702 mmHg 45%
    10:00 +24°C° 0 mm 2 mps 702 mmHg 42%
    11:00 +25°C° 0 mm 3 mps 702 mmHg 40%
    12:00 +27°C° 0 mm 3 mps 702 mmHg 38%
    13:00 +26°C° 0 mm 3 mps 702 mmHg 40%
    14:00 +26°C° 0 mm 3 mps 702 mmHg 42%
    15:00 +26°C° 0 mm 4 mps 702 mmHg 44%
    16:00 +24°C° 0 mm 3 mps 701 mmHg 53%
    17:00 +20°C° 0 mm 2 mps 701 mmHg 62%
    18:00 +18°C° 0 mm 2 mps 701 mmHg 71%
    19:00 +18°C° 0 mm 1 mps 702 mmHg 74%
    20:00 +18°C° 0 mm 1 mps 702 mmHg 78%
    21:00 +16°C° 0 mm 1 mps 702 mmHg 81%
    22:00 +16°C° 0 mm 1 mps 702 mmHg 80%
    23:00 +15°C° 0 mm 1 mps 702 mmHg 79%
    Show more